(266866) = 2009 UX138 = 2006 BB187

Discovered at Kitt Peak on 2009-10-26 by Spacewatch.

Orbit

Orbit type: Main Belt

Note: WebGL enabled browser required.

epoch2024-03-31.0
epoch JD2460400.5
perihelion date2020-11-09.21938
perihelion JD2459162.71939
argument of perihelion (°)344.97382
ascending node (°)83.41568
inclination (°)3.81683
eccentricity0.0382954
perihelion distance (AU)2.9300708
Tisserand w.r.t. Jupiter3.2
ΔV w.r.t. Earth (km/sec)10.7
semimajor axis (AU)3.0467471
mean anomaly (°)229.39986
mean daily motion (°/day)0.18533160
aphelion distance (AU)3.163
period (years)5.32
P-vector [x]0.36772370
P-vector [y]0.85991673
P-vector [z]0.35400917
Q-vector [x]-0.92758093
Q-vector [y]0.31210522
Q-vector [z]0.20538732
absolute magnitude15.89
phase slope0.15
uncertainty0
referenceE2024-FA5
observations used339
oppositions15
arc length (days)8100
first opposition used2001
last opposition used2023
residual rms (arc-secs)0.74
perturbers coarse indicatorM-v
perturbers precise indicator003Ek
first observation date used2001-04-16.0
last observation date used2023-06-20.0
computer nameMPCLINUX
JD of orbit computation2456966.920429
perihelion JD uncertainty (days)4.9998E-04
argument of perihelion uncertainty (°)1.3765E-04
ascending node uncertainty (°)1.0100E-04
inclination uncertainty (°)4.7334E-06
eccentricity uncertainty 6.3950E-08
perihelion distance uncertainty (AU)2.1113E-07
Minimum Orbit Intersection Distances (in AU)
for orbit epoch: 2460400.5, reference: E2024-FA5
Mercury2.62104
Venus2.20889
Earth1.9446
Mars1.33714
Jupiter1.95786
Saturn6.1042
Uranus15.3789
Neptune26.8671

Observations

343 total observations over interval: 2001 04 16.167150 – 2023 06 20.376981
These data are available for download (format description).

Date (UT) J2000 RA J2000 Dec Magn Location Ref
2001 04 16.167150 12 10 02.074 +04 38 47.52 20.55 V 645 – Apache Point-Sloan Digital Sky Survey MPS 303464
2001 04 16.170622 12 10 01.942 +04 38 47.98 21.38   645 – Apache Point-Sloan Digital Sky Survey MPS 303464
2004 12 20.20645 04 31 36.63 +21 06 11.0 19.4 R G96 – Mt. Lemmon Survey MPS 306780
2004 12 20.21830 04 31 36.03 +21 06 10.4 19.2 R G96 – Mt. Lemmon Survey MPS 306780
2004 12 20.23013 04 31 35.46 +21 06 10.0 19.9 R G96 – Mt. Lemmon Survey MPS 306780
2004 12 20.24182 04 31 34.87 +21 06 09.8 17.3 R G96 – Mt. Lemmon Survey MPS 306780
2006 01 28.44994 11 09 08.54 +10 49 55.3 20.6 V 691 – Steward Observatory, Kitt Peak-Spacewatch MPS 162971
2006 01 28.46725 11 09 08.09 +10 49 59.8 20.5 V 691 – Steward Observatory, Kitt Peak-Spacewatch MPS 162971
2006 01 28.48448 11 09 07.65 +10 50 04.1 20.6 V 691 – Steward Observatory, Kitt Peak-Spacewatch MPS 162971
2006 02 01.43398 11 07 22.69 +11 07 06.0 20.3 V 691 – Steward Observatory, Kitt Peak-Spacewatch MPS 162971
2006 02 01.45127 11 07 22.14 +11 07 10.4 20.5 V 691 – Steward Observatory, Kitt Peak-Spacewatch MPS 162971
2006 02 01.46865 11 07 21.61 +11 07 15.0 20.6 V 691 – Steward Observatory, Kitt Peak-Spacewatch MPS 162971
2006 03 03.23344 10 46 53.75 +13 37 58.5 20.0 R 699 – Lowell Observatory-LONEOS MPS 303464
2006 03 03.25901 10 46 52.63 +13 38 06.4   699 – Lowell Observatory-LONEOS MPS 303464
2006 03 03.29223 10 46 50.94 +13 38 15.3   699 – Lowell Observatory-LONEOS MPS 303464
2006 03 03.31936 10 46 49.67 +13 38 22.9   699 – Lowell Observatory-LONEOS MPS 303464
2007 05 26.32486 15 34 37.02 -16 47 19.9 20.8 V G96 – Mt. Lemmon Survey MPS 303464
2007 05 26.33039 15 34 36.73 -16 47 19.5 20.2 V G96 – Mt. Lemmon Survey MPS 303464
2007 05 26.33589 15 34 36.44 -16 47 18.8 20.2 V G96 – Mt. Lemmon Survey MPS 303464
2007 05 26.34146 15 34 36.12 -16 47 18.4 20.1 V G96 – Mt. Lemmon Survey MPS 303464
2007 06 10.29256 15 23 39.52 -16 25 42.1 20.8 V 691 – Steward Observatory, Kitt Peak-Spacewatch MPS 303464
2007 06 10.31851 15 23 38.50 -16 25 40.6 21.1 V 691 – Steward Observatory, Kitt Peak-Spacewatch MPS 303464
2007 06 10.33618 15 23 37.78 -16 25 39.2 20.9 V 691 – Steward Observatory, Kitt Peak-Spacewatch MPS 303464
2008 10 26.09264 21 00 01.62 -21 06 26.1 21.3 V G96 – Mt. Lemmon Survey MPS 303464
2008 10 26.09757 21 00 01.76 -21 06 25.0 21.2 V G96 – Mt. Lemmon Survey MPS 303464
2008 10 26.10243 21 00 01.90 -21 06 23.9 21.3 V G96 – Mt. Lemmon Survey MPS 303464
2008 10 26.10737 21 00 02.16 -21 06 22.7 21.5 V G96 – Mt. Lemmon Survey MPS 303464
2009 10 26.24256 02 53 38.79 +12 31 48.2 20.1 V 691 – Steward Observatory, Kitt Peak-Spacewatch MPS 303464
2009 10 26.25976 02 53 37.98 +12 31 46.0 20.3 V 691 – Steward Observatory, Kitt Peak-Spacewatch MPS 303464
2009 10 26.27696 02 53 37.09 +12 31 42.8 20.1 V 691 – Steward Observatory, Kitt Peak-Spacewatch MPS 303464
2009 11 09.25001 02 42 04.24 +11 51 07.9 19.2 V 703 – Catalina Sky Survey MPS 303464
2009 11 09.25868 02 42 03.81 +11 51 08.4 18.5 V 703 – Catalina Sky Survey MPS 303464
2009 11 09.26734 02 42 03.34 +11 51 05.0 19.8 V 703 – Catalina Sky Survey MPS 303464
2009 11 09.27596 02 42 02.88 +11 51 04.0 20.0 V 703 – Catalina Sky Survey MPS 303464
2009 11 18.28002 02 34 48.75 +11 28 15.1 19.9 V G96 – Mt. Lemmon Survey MPS 303464
2009 11 18.28865 02 34 48.36 +11 28 13.8 20.0 V G96 – Mt. Lemmon Survey MPS 303464
2009 11 18.29706 02 34 47.96 +11 28 12.7 19.9 V G96 – Mt. Lemmon Survey MPS 303464
2009 11 18.30549 02 34 47.56 +11 28 11.4 20.1 V G96 – Mt. Lemmon Survey MPS 303464
2010 01 12.18575 02 22 49.47 +12 01 49.8 20.9 V G96 – Mt. Lemmon Survey MPS 310326
2010 01 12.19284 02 22 49.58 +12 01 51.8 20.9 V G96 – Mt. Lemmon Survey MPS 310326
2010 01 12.20007 02 22 49.72 +12 01 53.2 21.2 V G96 – Mt. Lemmon Survey MPS 310326
2010 01 12.20725 02 22 49.94 +12 01 54.3 21.3 V G96 – Mt. Lemmon Survey MPS 310326
2011 01 10.30305 09 16 25.45 +19 49 03.2 20.5 V 691 – Steward Observatory, Kitt Peak-Spacewatch MPS 365784
2011 01 10.32078 09 16 24.76 +19 49 08.3 20.5 V 691 – Steward Observatory, Kitt Peak-Spacewatch MPS 365784
2011 01 10.33850 09 16 24.06 +19 49 12.4 20.3 V 691 – Steward Observatory, Kitt Peak-Spacewatch MPS 365784
2011 01 14.29655 09 13 47.51 +20 06 38.4 20.2 V 691 – Steward Observatory, Kitt Peak-Spacewatch MPS 367184
2011 01 14.31594 09 13 46.66 +20 06 43.2 20.6 V 691 – Steward Observatory, Kitt Peak-Spacewatch MPS 367184
2011 01 14.33528 09 13 45.83 +20 06 48.5 20.4 V 691 – Steward Observatory, Kitt Peak-Spacewatch MPS 367184
2011 01 26.35178 09 04 26.90 +21 01 38.7 20.2 V G96 – Mt. Lemmon Survey MPS 367184
2011 01 26.35874 09 04 26.58 +21 01 40.5 20.2 V G96 – Mt. Lemmon Survey MPS 367184
2011 01 26.36574 09 04 26.18 +21 01 42.4 20.2 V G96 – Mt. Lemmon Survey MPS 367184
2011 01 26.37277 09 04 25.82 +21 01 44.2 20.1 V G96 – Mt. Lemmon Survey MPS 367184
2011 01 30.47602 09 00 57.037 +21 20 03.64 20.5 w F51 – Pan-STARRS 1, Haleakala MPS 379642
2011 01 30.49114 09 00 56.233 +21 20 07.65 20.6 w F51 – Pan-STARRS 1, Haleakala MPS 379642
2011 01 30.52250 09 00 54.567 +21 20 15.75 20.5 w F51 – Pan-STARRS 1, Haleakala MPS 379642
2011 02 05.15075 08 56 04.83 +21 43 59.6 19.8 R H15 – ISON-NM Observatory, Mayhill MPS 369622
2011 02 05.16423 08 56 04.13 +21 44 03.2 19.8 R H15 – ISON-NM Observatory, Mayhill MPS 369622
2011 02 05.17789 08 56 03.41 +21 44 06.8 19.9 R H15 – ISON-NM Observatory, Mayhill MPS 369622
2011 02 05.19312 08 56 02.61 +21 44 10.9 19.8 R H15 – ISON-NM Observatory, Mayhill MPS 369622
2011 02 05.30702 08 55 56.49 +21 44 37.7 19.9 V 703 – Catalina Sky Survey MPS 369622
2011 02 05.31824 08 55 55.95 +21 44 42.5 20.2 V 703 – Catalina Sky Survey MPS 369622
2011 02 05.32954 08 55 55.34 +21 44 45.2 20.3 V 703 – Catalina Sky Survey MPS 369622
2011 02 23.15219 08 42 05.86 +22 42 13.4 20.7 V 703 – Catalina Sky Survey MPS 371921
2011 02 23.15977 08 42 05.40 +22 42 15.0 21.4 V 703 – Catalina Sky Survey MPS 371921
2011 02 23.16735 08 42 05.22 +22 42 16.8 20.8 V 703 – Catalina Sky Survey MPS 371921
2011 02 23.17488 08 42 04.82 +22 42 17.9 20.5 V 703 – Catalina Sky Survey MPS 371921
2012 01 19.51527 14 12 57.38 -09 33 08.2 21.8 V G96 – Mt. Lemmon Survey MPS 408701
2012 01 19.52264 14 12 57.70 -09 33 09.4 22.0 V G96 – Mt. Lemmon Survey MPS 408701
2012 01 19.52965 14 12 57.99 -09 33 11.0 21.9 V G96 – Mt. Lemmon Survey MPS 408701
2012 01 19.53669 14 12 58.32 -09 33 13.0 21.4 V G96 – Mt. Lemmon Survey MPS 408701
2012 03 15.37335 14 29 45.78 -10 12 07.9 21.2 V 691 – Steward Observatory, Kitt Peak-Spacewatch MPS 417122
2012 03 15.39111 14 29 45.48 -10 12 05.9 20.7 V 691 – Steward Observatory, Kitt Peak-Spacewatch MPS 417122
2012 03 15.40888 14 29 45.16 -10 12 03.7 20.8 V 691 – Steward Observatory, Kitt Peak-Spacewatch MPS 417122
2012 03 15.44201 14 29 44.55 -10 11 59.9 21.1 V G96 – Mt. Lemmon Survey MPS 417122
2012 03 15.44888 14 29 44.41 -10 11 59.1 20.4 V G96 – Mt. Lemmon Survey MPS 417122
2012 03 15.45581 14 29 44.30 -10 11 58.0 21.0 V G96 – Mt. Lemmon Survey MPS 417122
2012 03 15.46276 14 29 44.16 -10 11 57.3 21.0 V G96 – Mt. Lemmon Survey MPS 417122
2012 04 21.33741 14 07 47.24 -08 16 10.0 20.0 V 703 – Catalina Sky Survey MPS 422746
2012 04 21.34527 14 07 46.92 -08 16 08.4 20.4 V 703 – Catalina Sky Survey MPS 422746
2012 04 21.35318 14 07 46.48 -08 16 06.1 20.4 V 703 – Catalina Sky Survey MPS 422746
2012 04 21.36111 14 07 46.16 -08 16 04.1 20.3 V 703 – Catalina Sky Survey MPS 422746
2012 04 27.40141 14 03 02.256 -07 55 02.71 20.0 i F51 – Pan-STARRS 1, Haleakala MPS 423623
2012 04 27.41277 14 03 01.712 -07 55 00.42 19.7 i F51 – Pan-STARRS 1, Haleakala MPS 423623
2012 04 28.40090 14 02 15.724 -07 51 42.80 19.9 i F51 – Pan-STARRS 1, Haleakala MPS 423623
2012 04 28.41235 14 02 15.174 -07 51 40.62 19.7 i F51 – Pan-STARRS 1, Haleakala MPS 423623
2012 05 01.46160 13 59 54.939 -07 41 50.49 20.1 r F51 – Pan-STARRS 1, Haleakala MPS 423623
2012 05 01.47204 13 59 54.456 -07 41 48.44 20.1 r F51 – Pan-STARRS 1, Haleakala MPS 423623
2012 05 25.19513 13 45 10.90 -06 51 33.6 20.6 V G96 – Mt. Lemmon Survey MPS 425906
2012 05 25.20312 13 45 10.69 -06 51 32.9 20.6 V G96 – Mt. Lemmon Survey MPS 425906
2012 05 25.21103 13 45 10.47 -06 51 32.6 20.6 V G96 – Mt. Lemmon Survey MPS 425906
